Location: Gorze? G�rny
(49.8500°N, 19.5000°E)
Time: 04:06:55
(UTC+00:00)

Cosmos 1500 - Pass Details

Date: 13 May 2021
Orbit: 497 x 518 km, 82.5° (Epoch: 23 June)

Event Time Altitude Azimuth Distance (km) Brightness Sun altitude
Rises 19:12:39 0° 351° (N) 2,614 7.7 -7.9°
Reaches altitude 10° 19:14:48 10° 354° (N) 1,722 6.6 -8.2°
Maximum altitude 19:18:34 73° 79° (E) 529 3.1 -8.6°
Drops below altitude 10° 19:22:17 10° 165° (SSE) 1,698 5.3 -9.0°
Enters shadow 19:22:32 - 165° (SSE) 1,805 5.4 -9.1°
